Starlink 5989

operational
NORAD ID: 56781 Int'l Des: 2023-078 Owner: SPXS Country: US Constellation: starlink
LEOCIRCULAR

关于 Starlink 5989

正在加载描述...

实时位置

正在加载3D地球...

即将过境

高度历史

Altitude vs Time

uPlot chart will show altitude changes over time

两行轨道根数

1 56781U 23078Q 25259.88201561 -.00000442 00000-0 -29252-4 0 9997
2 56781 69.9999 62.7628 0002859 268.5600 91.5231 14.98325356126648
Epoch: Sep 16, 2025 • Age: 27 hours

当前状态

高度 588.9 km
速度 7.57 km/s
星下点 -48.76°S, 35.8°E
发射日期 May 31, 2023
运行时间 2.2 years
类型 internet

技术详情

分类 Payload
质量 305.00 kg
干质量 290.00 kg
总质量 305.00 kg
长度 0.20 m
直径 2.80 m
跨度 9.00 m
形状 Box + pan
制造商 SPXS
平台类型 Starlink
阶段状态 In Orbit
所有者/国家 SPXS/US

大型星座

Loading constellations...